FW7492 Weather Reports


Display with metric or nautical units.
time (UTC)temp
F
wind
direction
speed
MPH
gust
MPH
rain 1hr
in
rain 24hr
in
rain mn
in
humidity
%
barometer
mb
20260505053059 67 152 4.0 9.0 0.00 0.00 0.00 57 999.0
20260505051612 67 290 3.0 10.0 0.00 0.00 0.00 56 999.1
20260505041559 69 111 5.0 13.0 0.00 0.00 0.00 55 999.5
20260505040100 69 166 1.0 14.0 0.00 0.00 0.00 55 999.8
20260505034600 69 66 3.0 12.0 0.00 0.00 0.00 55 999.6
20260505033056 69 276 3.0 11.0 0.00 0.00 0.00 55 999.6
20260505031604 69 205 3.0 10.0 0.00 0.00 0.00 56 999.7
20260505030103 69 122 3.0 9.0 0.00 0.00 0.00 56 999.4
20260505024556 69 254 2.0 13.0 0.00 0.00 0.00 56 999.2
20260505023056 69 274 4.0 15.0 0.00 0.00 0.00 55 999.1
20260505021601 70 279 5.0 12.0 0.00 0.00 0.00 55 999.0
20260505020104 70 281 7.0 13.0 0.00 0.00 0.00 54 998.7
20260505014554 70 283 5.0 9.0 0.00 0.00 0.00 54 998.5
20260505013104 71 271 4.0 11.0 0.00 0.00 0.00 53 998.4
20260505011557 71 290 3.0 10.0 0.00 0.00 0.00 53 998.5
20260505010112 72 293 4.0 12.0 0.00 0.00 0.00 53 998.4
20260505004553 72 342 4.0 12.0 0.00 0.00 0.00 51 998.3
20260505003056 73 283 4.0 9.0 0.00 0.00 0.00 50 998.4
20260505001600 73 267 4.0 10.0 0.00 0.00 0.00 49 998.4
20260505000057 74 188 2.0 10.0 0.00 0.00 0.00 47 998.5
20260504234554 74 162 2.0 10.0 0.00 0.00 0.00 46 998.5
20260504233106 74 285 4.0 13.0 0.00 0.00 0.00 45 998.8
20260504231552 75 150 6.0 18.0 0.00 0.00 0.00 44 998.8
20260504230057 75 243 5.0 20.0 0.00 0.00 0.00 44 998.8
20260504224552 75 264 6.0 23.0 0.00 0.00 0.00 43 998.7
20260504223051 76 156 3.0 29.0 0.00 0.00 0.00 44 999.1
20260504221553 76 251 7.0 19.0 0.00 0.00 0.00 44 999.1
20260504220051 75 197 3.0 14.0 0.00 0.00 0.00 45 999.0
20260504214555 75 155 2.0 9.0 0.00 0.00 0.00 47 999.4
20260504213052 74 276 1.0 11.0 0.00 0.00 0.00 49 999.5
20260504211551 74 104 4.0 9.0 0.00 0.00 0.00 49 999.8
20260504210105 74 104 8.0 17.0 0.00 0.00 0.00 48 999.9
20260504204559 74 111 6.0 18.0 0.00 0.00 0.00 49 1000.1
20260504203105 74 101 0.0 8.0 0.00 0.00 0.00 50 1000.2
20260504201555 73 203 6.0 16.0 0.00 0.00 0.00 51 1000.3
20260504200055 72 111 11.0 17.0 0.00 0.00 0.00 51 1000.6
20260504194555 72 106 12.0 18.0 0.00 0.00 0.00 51 1001.0
20260504193051 71 104 11.0 19.0 0.00 0.00 0.00 52 1001.3
20260504191550 70 100 13.0 20.0 0.00 0.00 0.00 55 1001.3
20260504190121 70 111 7.0 12.0 0.00 0.00 0.00 57 1001.6
20260504184553 68 111 7.0 23.0 0.00 0.00 0.00 58 1001.7
20260504183050 69 254 5.0 16.0 0.00 0.00 0.00 58 1001.7
20260504181555 68 117 5.0 22.0 0.00 0.00 0.00 60 1001.6
20260504180054 67 290 4.0 19.0 0.00 0.00 0.00 59 1001.4
20260504174558 67 32 1.0 13.0 0.00 0.00 0.00 59 1001.2
20260504173052 66 335 4.0 13.0 0.00 0.00 0.00 58 1001.4
20260504171553 66 257 7.0 17.0 0.00 0.00 0.00 58 1001.4
20260504160107 65 0 5.0 12.0 0.00 0.00 0.00 60 1002.2
20260504081600 53 316 4.0 9.0 0.00 0.00 0.00 59 1003.6
20260504060106 55 121 3.0 9.0 0.00 0.00 0.00 55 1004.9